Location: Fort Worth, Tx
(32.7431°N, 97.3695°W)
Time: 00:56:05
(UTC-04:00)

A-11 Canister half - Pass Details

Date: 23 March 2026
Orbit: 1523 x 1685 km, 47.3° (Epoch: 20 April)

Event Time Altitude Azimuth Distance (km) Brightness Sun altitude
Rises 06:52:12 0° 187° (S) 4,920 11.4 -21.0°
Reaches altitude 10° 06:56:13 10° 174° (S) 3,936 11.0 -20.1°
Maximum altitude 07:03:42 24° 126° (SE) 2,967 10.9 -18.6°
Drops below altitude 10° 07:11:06 10° 77° (ENE) 3,903 12.5 -17.1°
Sets 07:15:01 0° 65° (ENE) 4,872 13.2 -16.3°
